UAE5QL OMDB-FSIA

Flight info

Callsign UAE5QL
Flight time 3h 50m
Altitude 39000
Route ANVIX R401 GIDIS G783 UKRAG L710 DEDSO/N0488F380 R401 SUHIL UM314 IMTIP DCT EPNOR T144 ROUTY ROUTY1D
Aircraft A359/H-SDE2E3GHIJ3J4J5LM1ORWXY/LB1D1

Departure

Time 2026-04-25 08:21
Airport Dubai International Airport (OMDB)

Arrival

Time 2026-04-25 12:11
Airport Seychelles International Airport (FSIA)
Time Latitude Longitude Altitude Speed Heading
2026-04-25 07:34 25.24801 55.36438 27 ft 0 kts 211°
2026-04-25 08:02 25.24802 55.36438 27 ft 1 kts 211°
2026-04-25 08:02 25.24822 55.36451 27 ft 4 kts 211°
2026-04-25 08:03 25.24845 55.36467 26 ft 4 kts 211°
2026-04-25 08:03 25.24863 55.36480 26 ft 4 kts 229°
2026-04-25 08:03 25.24873 55.36504 25 ft 4 kts 277°
2026-04-25 08:03 25.24864 55.36531 24 ft 3 kts 302°
2026-04-25 08:04 25.24850 55.36555 24 ft 4 kts 302°
2026-04-25 08:04 25.24847 55.36561 26 ft 0 kts 302°
2026-04-25 08:09 25.24856 55.36545 27 ft 5 kts 302°
2026-04-25 08:09 25.24879 55.36505 27 ft 7 kts 302°
2026-04-25 08:10 25.24910 55.36448 27 ft 10 kts 302°
2026-04-25 08:10 25.24951 55.36376 27 ft 12 kts 302°
2026-04-25 08:10 25.25000 55.36289 27 ft 15 kts 302°
2026-04-25 08:10 25.25058 55.36184 27 ft 17 kts 302°
2026-04-25 08:11 25.25125 55.36068 27 ft 19 kts 302°
2026-04-25 08:11 25.25197 55.35940 27 ft 20 kts 302°
2026-04-25 08:11 25.25272 55.35808 27 ft 21 kts 302°
2026-04-25 08:11 25.25349 55.35670 27 ft 21 kts 302°
2026-04-25 08:12 25.25427 55.35533 27 ft 22 kts 302°
2026-04-25 08:12 25.25507 55.35392 27 ft 22 kts 302°
2026-04-25 08:12 25.25584 55.35253 27 ft 11 kts 301°
2026-04-25 08:12 25.25588 55.35246 27 ft 3 kts 301°
2026-04-25 08:13 25.25607 55.35212 27 ft 6 kts 301°
2026-04-25 08:13 25.25636 55.35169 27 ft 8 kts 317°
2026-04-25 08:13 25.25688 55.35164 27 ft 8 kts 19°
2026-04-25 08:14 25.25817 55.35244 27 ft 13 kts 30°
2026-04-25 08:14 25.25897 55.35301 27 ft 15 kts 32°
2026-04-25 08:14 25.25980 55.35373 28 ft 16 kts 54°
2026-04-25 08:14 25.26007 55.35493 28 ft 17 kts 95°
2026-04-25 08:15 25.25955 55.35617 28 ft 19 kts 122°
2026-04-25 08:15 25.25881 55.35748 28 ft 20 kts 122°
2026-04-25 08:15 25.25807 55.35879 28 ft 21 kts 122°
2026-04-25 08:15 25.25728 55.36019 28 ft 22 kts 122°
2026-04-25 08:16 25.25651 55.36156 29 ft 21 kts 122°
2026-04-25 08:16 25.25574 55.36294 29 ft 22 kts 122°
2026-04-25 08:16 25.25493 55.36438 28 ft 22 kts 122°
2026-04-25 08:16 25.25409 55.36587 28 ft 23 kts 122°
2026-04-25 08:17 25.25334 55.36721 28 ft 20 kts 122°
2026-04-25 08:17 25.25288 55.36801 28 ft 19 kts 122°
2026-04-25 08:17 25.25218 55.36926 28 ft 20 kts 122°
2026-04-25 08:17 25.25144 55.37057 29 ft 20 kts 121°
2026-04-25 08:18 25.25069 55.37191 29 ft 21 kts 122°
2026-04-25 08:18 25.24991 55.37330 30 ft 22 kts 122°
2026-04-25 08:18 25.24911 55.37473 30 ft 22 kts 122°
2026-04-25 08:18 25.24826 55.37622 29 ft 23 kts 122°
2026-04-25 08:19 25.24770 55.37722 29 ft 11 kts 122°
2026-04-25 08:19 25.24729 55.37796 29 ft 11 kts 122°
2026-04-25 08:19 25.24716 55.37849 29 ft 6 kts 81°
2026-04-25 08:19 25.24732 55.37876 28 ft 3 kts 49°
2026-04-25 08:20 25.24752 55.37893 29 ft 4 kts 35°
2026-04-25 08:20 25.24792 55.37924 30 ft 10 kts 35°
2026-04-25 08:20 25.24850 55.37929 31 ft 8 kts 332°
2026-04-25 08:20 25.24899 55.37856 32 ft 23 kts 301°
2026-04-25 08:21 25.25092 55.37510 33 ft 83 kts 301°
2026-04-25 08:21 25.25496 55.36782 30 ft 138 kts 302°
2026-04-25 08:21 25.26070 55.35738 195 ft 169 kts 300°
2026-04-25 08:21 25.26615 55.34653 925 ft 160 kts 301°
2026-04-25 08:22 25.27207 55.33597 1403 ft 168 kts 303°
2026-04-25 08:22 25.27836 55.32506 2054 ft 168 kts 303°
2026-04-25 08:22 25.28486 55.31365 2448 ft 185 kts 303°
2026-04-25 08:22 25.29121 55.30031 2638 ft 208 kts 290°
2026-04-25 08:23 25.29120 55.28379 2917 ft 227 kts 253°
2026-04-25 08:23 25.28491 55.26740 3437 ft 233 kts 245°
2026-04-25 08:23 25.27776 55.25118 4041 ft 236 kts 246°
2026-04-25 08:23 25.27051 55.23473 4625 ft 239 kts 246°
2026-04-25 08:24 25.26324 55.21807 5202 ft 241 kts 246°
2026-04-25 08:24 25.25615 55.20157 5826 ft 241 kts 246°
2026-04-25 08:24 25.24858 55.18510 6437 ft 242 kts 239°
2026-04-25 08:24 25.23675 55.17185 6885 ft 246 kts 211°
2026-04-25 08:25 25.21996 55.16678 7202 ft 259 kts 182°
2026-04-25 08:25 25.20182 55.16840 7600 ft 265 kts 168°
2026-04-25 08:25 25.18479 55.17713 7855 ft 280 kts 142°
2026-04-25 08:25 25.17265 55.19442 8153 ft 290 kts 120°
2026-04-25 08:26 25.16320 55.21437 8598 ft 295 kts 118°
2026-04-25 08:26 25.15399 55.23436 9097 ft 297 kts 119°
2026-04-25 08:26 25.14450 55.25465 9635 ft 297 kts 119°
2026-04-25 08:26 25.13489 55.27498 10113 ft 300 kts 119°
2026-04-25 08:27 25.12515 55.29546 10542 ft 302 kts 120°
2026-04-25 08:27 25.11516 55.31626 10793 ft 312 kts 120°
2026-04-25 08:27 25.10477 55.33789 10975 ft 325 kts 120°
2026-04-25 08:27 25.09487 55.36089 11135 ft 338 kts 115°
2026-04-25 08:28 25.08521 55.38499 11314 ft 349 kts 115°
2026-04-25 08:28 25.07526 55.40971 11479 ft 360 kts 116°
2026-04-25 08:28 25.06500 55.43538 11645 ft 370 kts 114°
2026-04-25 08:28 25.05503 55.46158 11800 ft 379 kts 114°
2026-04-25 08:29 25.04472 55.48877 11966 ft 387 kts 114°
2026-04-25 08:29 25.03420 55.51633 12208 ft 392 kts 114°
2026-04-25 08:29 25.02352 55.54401 12616 ft 392 kts 115°
2026-04-25 08:29 25.01087 55.57072 12956 ft 393 kts 121°
2026-04-25 08:30 24.99693 55.59679 13292 ft 395 kts 122°
2026-04-25 08:30 24.98277 55.62285 13640 ft 396 kts 122°
2026-04-25 08:30 24.96853 55.64907 13954 ft 398 kts 121°
2026-04-25 08:30 24.95447 55.67502 14242 ft 400 kts 122°
2026-04-25 08:31 24.93975 55.70108 14548 ft 401 kts 126°
2026-04-25 08:31 24.92361 55.72616 14884 ft 401 kts 127°
2026-04-25 08:31 24.90711 55.75102 15162 ft 404 kts 128°
2026-04-25 08:31 24.89044 55.77606 15549 ft 402 kts 127°
2026-04-25 08:32 24.87412 55.80065 16335 ft 393 kts 128°
2026-04-25 08:32 24.85821 55.82463 17041 ft 390 kts 128°
2026-04-25 08:32 24.84221 55.84872 17656 ft 388 kts 128°
2026-04-25 08:32 24.82614 55.87276 18163 ft 391 kts 128°
2026-04-25 08:33 24.80944 55.89671 18538 ft 394 kts 131°
2026-04-25 08:33 24.78943 55.91735 18898 ft 395 kts 147°
2026-04-25 08:33 24.76534 55.93106 19248 ft 397 kts 162°
2026-04-25 08:33 24.73822 55.93690 19627 ft 399 kts 176°
2026-04-25 08:34 24.71038 55.93825 20069 ft 401 kts 181°
2026-04-25 08:34 24.68233 55.93776 20472 ft 404 kts 184°
2026-04-25 08:34 24.65406 55.93646 20877 ft 408 kts 185°
2026-04-25 08:34 24.62586 55.93238 21301 ft 409 kts 194°
2026-04-25 08:35 24.59872 55.92280 21693 ft 411 kts 206°
2026-04-25 08:35 24.57404 55.90713 22109 ft 410 kts 217°
2026-04-25 08:35 24.55162 55.88833 22554 ft 411 kts 221°
2026-04-25 08:35 24.52976 55.86797 23025 ft 413 kts 223°
2026-04-25 08:36 24.50826 55.84693 23486 ft 415 kts 224°
2026-04-25 08:36 24.48679 55.82560 23863 ft 418 kts 224°
2026-04-25 08:36 24.46515 55.80418 24264 ft 420 kts 224°
2026-04-25 08:36 24.44331 55.78275 24660 ft 422 kts 224°
2026-04-25 08:37 24.42128 55.76135 25085 ft 424 kts 224°
2026-04-25 08:37 24.39906 55.73991 25488 ft 426 kts 223°
2026-04-25 08:37 24.37669 55.71842 25887 ft 429 kts 223°
2026-04-25 08:37 24.35416 55.69686 26307 ft 431 kts 223°
2026-04-25 08:38 24.33147 55.67514 26713 ft 433 kts 223°
2026-04-25 08:38 24.30871 55.65334 27109 ft 436 kts 223°
2026-04-25 08:38 24.28549 55.63180 27496 ft 439 kts 220°
2026-04-25 08:38 24.25989 55.61317 27841 ft 446 kts 211°
2026-04-25 08:39 24.23150 55.59903 28203 ft 451 kts 202°
2026-04-25 08:39 24.20152 55.58823 28583 ft 455 kts 200°
2026-04-25 08:39 24.17094 55.57855 28963 ft 458 kts 198°
2026-04-25 08:39 24.14005 55.56942 29340 ft 460 kts 198°
2026-04-25 08:40 24.10898 55.56048 29689 ft 463 kts 198°
2026-04-25 08:40 24.07775 55.55148 30036 ft 465 kts 198°
2026-04-25 08:40 24.04679 55.54247 30328 ft 467 kts 198°
2026-04-25 08:40 24.01534 55.53323 30629 ft 469 kts 198°
2026-04-25 08:41 23.98375 55.52392 30936 ft 471 kts 198°
2026-04-25 08:41 23.95204 55.51453 31255 ft 472 kts 198°
2026-04-25 08:41 23.92027 55.50509 31539 ft 474 kts 198°
2026-04-25 08:41 23.88837 55.49559 31822 ft 475 kts 198°
2026-04-25 08:42 23.85635 55.48607 32090 ft 477 kts 198°
2026-04-25 08:42 23.82419 55.47654 32368 ft 478 kts 198°
2026-04-25 08:42 23.79201 55.46700 32628 ft 480 kts 198°
2026-04-25 08:42 23.76007 55.45750 32879 ft 481 kts 199°
2026-04-25 08:43 23.72760 55.44784 33133 ft 483 kts 199°
2026-04-25 08:43 23.69501 55.43816 33314 ft 485 kts 199°
2026-04-25 08:43 23.66272 55.42857 33527 ft 486 kts 199°
2026-04-25 08:43 23.63007 55.41890 33908 ft 485 kts 199°
2026-04-25 08:44 23.59755 55.40928 34207 ft 483 kts 199°
2026-04-25 08:44 23.56490 55.40013 34428 ft 486 kts 196°
2026-04-25 08:44 23.53129 55.39470 34623 ft 492 kts 188°
2026-04-25 08:44 23.49687 55.39455 34818 ft 498 kts 180°
2026-04-25 08:45 23.46232 55.40024 35011 ft 504 kts 172°
2026-04-25 08:45 23.42796 55.40882 35175 ft 507 kts 170°
2026-04-25 08:45 23.39408 55.41851 35300 ft 510 kts 168°
2026-04-25 08:45 23.35984 55.42943 35482 ft 512 kts 167°
2026-04-25 08:46 23.32561 55.44081 35679 ft 512 kts 167°
2026-04-25 08:46 23.29180 55.45206 35856 ft 513 kts 167°
2026-04-25 08:46 23.25751 55.46333 36027 ft 514 kts 168°
2026-04-25 08:46 23.22310 55.47445 36214 ft 514 kts 168°
2026-04-25 08:47 23.18872 55.48542 36372 ft 515 kts 168°
2026-04-25 08:47 23.15427 55.49632 36499 ft 516 kts 168°
2026-04-25 08:47 23.11966 55.50721 36656 ft 517 kts 168°
2026-04-25 08:47 23.08539 55.51798 36805 ft 518 kts 168°
2026-04-25 08:48 23.05074 55.52886 36974 ft 518 kts 168°
2026-04-25 08:48 23.01593 55.53980 37128 ft 519 kts 168°
2026-04-25 08:48 22.98122 55.55056 37274 ft 519 kts 169°
2026-04-25 08:48 22.94641 55.56123 37417 ft 520 kts 169°
2026-04-25 08:49 22.91188 55.57175 37497 ft 521 kts 169°
2026-04-25 08:49 22.87675 55.58246 37623 ft 522 kts 169°
2026-04-25 08:49 22.84164 55.59318 37770 ft 523 kts 169°
2026-04-25 08:49 22.80700 55.60377 37885 ft 524 kts 169°
2026-04-25 08:50 22.77177 55.61455 37909 ft 526 kts 169°
2026-04-25 08:50 22.70092 55.63623 37907 ft 527 kts 169°
2026-04-25 08:51 22.63054 55.65778 37909 ft 528 kts 169°
2026-04-25 08:51 22.55971 55.67951 37907 ft 528 kts 169°
2026-04-25 08:52 22.48927 55.70105 37908 ft 528 kts 169°
2026-04-25 08:52 22.41827 55.72273 37903 ft 529 kts 169°
2026-04-25 08:53 22.34709 55.74444 37906 ft 531 kts 169°
2026-04-25 08:53 22.27638 55.76568 37899 ft 529 kts 172°
2026-04-25 08:54 22.20416 55.77702 37908 ft 523 kts 179°
2026-04-25 08:54 22.13161 55.78456 37917 ft 524 kts 180°
2026-04-25 08:55 22.05886 55.79149 37909 ft 525 kts 180°
2026-04-25 08:55 21.98600 55.79854 37910 ft 526 kts 180°
2026-04-25 08:56 21.91319 55.80572 37906 ft 526 kts 180°
2026-04-25 08:56 21.84011 55.81296 37917 ft 528 kts 180°
2026-04-25 08:57 21.76689 55.82022 37912 ft 529 kts 180°
2026-04-25 08:57 21.69359 55.82750 37909 ft 529 kts 180°
2026-04-25 08:58 21.62032 55.83476 37918 ft 530 kts 180°
2026-04-25 08:58 21.54674 55.84194 37911 ft 531 kts 180°
2026-04-25 08:59 21.47314 55.84913 37917 ft 531 kts 180°
2026-04-25 08:59 21.39948 55.85635 37910 ft 531 kts 180°
2026-04-25 09:00 21.32588 55.86356 37913 ft 531 kts 180°
2026-04-25 09:00 21.25268 55.87074 37913 ft 532 kts 180°
2026-04-25 09:01 21.17856 55.87800 37905 ft 531 kts 180°
2026-04-25 09:01 21.10537 55.88509 37908 ft 532 kts 180°
2026-04-25 09:02 21.03155 55.89223 37911 ft 533 kts 180°
2026-04-25 09:02 20.95755 55.89941 37908 ft 534 kts 180°
2026-04-25 09:03 20.88362 55.90660 37908 ft 534 kts 180°
2026-04-25 09:03 20.80961 55.91383 37910 ft 535 kts 180°
2026-04-25 09:04 20.73536 55.92101 37903 ft 536 kts 180°
2026-04-25 09:04 20.66110 55.92818 37902 ft 536 kts 180°
2026-04-25 09:05 20.58679 55.93536 37905 ft 536 kts 180°
2026-04-25 09:05 20.52502 55.94133 37908 ft 537 kts 180°
2026-04-25 09:06 20.45047 55.94853 37911 ft 538 kts 180°
2026-04-25 09:06 20.37594 55.95572 37911 ft 538 kts 180°
2026-04-25 09:07 20.30134 55.96293 37907 ft 538 kts 179°
2026-04-25 09:07 20.22675 55.97010 37919 ft 539 kts 180°
2026-04-25 09:08 20.15201 55.97716 37918 ft 539 kts 180°
2026-04-25 09:08 20.07732 55.98423 37917 ft 539 kts 180°
2026-04-25 09:09 20.00265 55.98781 37915 ft 536 kts 184°
2026-04-25 09:09 19.92806 55.98847 37916 ft 537 kts 185°
2026-04-25 09:10 19.85333 55.98950 37920 ft 537 kts 184°
2026-04-25 09:10 19.77860 55.99115 37920 ft 537 kts 184°
2026-04-25 09:11 19.66635 55.99399 37916 ft 538 kts 183°
2026-04-25 09:11 19.59140 55.99590 37917 ft 539 kts 184°
2026-04-25 09:12 19.51651 55.99778 37916 ft 539 kts 184°
2026-04-25 09:12 19.44154 55.99969 37916 ft 539 kts 183°
2026-04-25 09:13 19.36652 56.00154 37914 ft 540 kts 183°
2026-04-25 09:13 19.29189 56.00337 37914 ft 540 kts 183°
2026-04-25 09:14 19.21685 56.00523 37910 ft 540 kts 183°
2026-04-25 09:14 19.14170 56.00710 37910 ft 541 kts 183°
2026-04-25 09:15 19.06647 56.00897 37908 ft 541 kts 183°
2026-04-25 09:15 18.99124 56.01020 37903 ft 539 kts 187°
2026-04-25 09:16 18.91816 55.99778 37912 ft 529 kts 198°
2026-04-25 09:16 18.84660 55.97930 37912 ft 529 kts 200°
2026-04-25 09:17 18.73963 55.95013 37909 ft 530 kts 200°
2026-04-25 09:18 18.66814 55.93091 37910 ft 530 kts 200°
2026-04-25 09:18 18.59661 55.91185 37912 ft 530 kts 199°
2026-04-25 09:19 18.52513 55.89285 37916 ft 530 kts 199°
2026-04-25 09:19 18.45365 55.87386 37915 ft 530 kts 199°
2026-04-25 09:20 18.38212 55.85486 37911 ft 530 kts 199°
2026-04-25 09:20 18.31059 55.83587 37906 ft 530 kts 199°
2026-04-25 09:21 18.23902 55.81690 37924 ft 531 kts 199°
2026-04-25 09:21 18.16729 55.79790 37927 ft 532 kts 199°
2026-04-25 09:22 18.09558 55.77893 37930 ft 531 kts 199°
2026-04-25 09:22 18.02392 55.75998 37934 ft 530 kts 199°
2026-04-25 09:23 17.95113 55.74537 37935 ft 536 kts 192°
2026-04-25 09:23 17.87705 55.73528 37933 ft 537 kts 191°
2026-04-25 09:24 17.80286 55.72597 37934 ft 537 kts 191°
2026-04-25 09:24 17.72912 55.71670 37936 ft 537 kts 191°
2026-04-25 09:25 17.65492 55.70726 37931 ft 538 kts 191°
2026-04-25 09:25 17.58057 55.69775 37930 ft 538 kts 191°
2026-04-25 09:26 17.50625 55.68825 37929 ft 538 kts 191°
2026-04-25 09:26 17.43188 55.67876 37930 ft 538 kts 191°
2026-04-25 09:27 17.35751 55.66927 37931 ft 539 kts 191°
2026-04-25 09:27 17.28298 55.65976 37933 ft 539 kts 191°
2026-04-25 09:28 17.20848 55.65028 37932 ft 540 kts 191°
2026-04-25 09:28 17.13392 55.64079 37930 ft 540 kts 191°
2026-04-25 09:29 17.05939 55.63132 37931 ft 540 kts 191°
2026-04-25 09:29 16.98475 55.62183 37933 ft 540 kts 191°
2026-04-25 09:30 16.91016 55.61236 37930 ft 540 kts 191°
2026-04-25 09:30 16.83548 55.60297 37933 ft 540 kts 191°
2026-04-25 09:31 16.76081 55.59362 37933 ft 541 kts 191°
2026-04-25 09:31 16.68604 55.58426 37933 ft 541 kts 191°
2026-04-25 09:32 16.61132 55.57493 37936 ft 541 kts 191°
2026-04-25 09:32 16.53653 55.56559 37930 ft 541 kts 191°
2026-04-25 09:33 16.46177 55.55626 37937 ft 541 kts 190°
2026-04-25 09:33 16.38691 55.54692 37939 ft 542 kts 190°
2026-04-25 09:34 16.31203 55.53760 37935 ft 542 kts 190°
2026-04-25 09:34 16.23723 55.52828 37930 ft 542 kts 190°
2026-04-25 09:35 16.16237 55.51897 37937 ft 541 kts 190°
2026-04-25 09:35 16.08819 55.50975 37936 ft 541 kts 190°
2026-04-25 09:36 16.01348 55.50047 37934 ft 540 kts 190°
2026-04-25 09:36 15.93883 55.49120 37925 ft 541 kts 190°
2026-04-25 09:37 15.86410 55.48193 37933 ft 541 kts 190°
2026-04-25 09:37 15.78942 55.47268 37934 ft 541 kts 190°
2026-04-25 09:38 15.71472 55.46343 37933 ft 541 kts 190°
2026-04-25 09:38 15.63997 55.45418 37932 ft 541 kts 190°
2026-04-25 09:39 15.56524 55.44494 37927 ft 541 kts 190°
2026-04-25 09:39 15.49056 55.43571 37933 ft 541 kts 190°
2026-04-25 09:40 15.37850 55.42188 37929 ft 541 kts 190°
2026-04-25 09:40 15.30384 55.41266 37937 ft 540 kts 190°
2026-04-25 09:41 15.22912 55.40346 37930 ft 540 kts 190°
2026-04-25 09:41 15.15447 55.39429 37928 ft 540 kts 190°
2026-04-25 09:42 15.07978 55.38493 37927 ft 540 kts 190°
2026-04-25 09:42 15.00515 55.37552 37930 ft 540 kts 190°
2026-04-25 09:43 14.93050 55.36615 37925 ft 540 kts 190°
2026-04-25 09:43 14.85585 55.35682 37921 ft 540 kts 190°
2026-04-25 09:44 14.78128 55.34750 37929 ft 540 kts 190°
2026-04-25 09:44 14.70714 55.33825 37923 ft 540 kts 189°
2026-04-25 09:45 14.63257 55.32895 37932 ft 540 kts 189°
2026-04-25 09:45 14.55800 55.31965 37921 ft 540 kts 189°
2026-04-25 09:46 14.48337 55.31036 37914 ft 540 kts 189°
2026-04-25 09:46 14.40874 55.30106 37922 ft 540 kts 189°
2026-04-25 09:47 14.33416 55.29178 37927 ft 540 kts 189°
2026-04-25 09:47 14.25950 55.28250 37928 ft 540 kts 189°
2026-04-25 09:48 14.18489 55.27323 37914 ft 540 kts 189°
2026-04-25 09:48 14.11023 55.26396 37917 ft 540 kts 189°
2026-04-25 09:49 14.03570 55.25472 37921 ft 539 kts 189°
2026-04-25 09:49 13.96117 55.24548 37917 ft 539 kts 189°
2026-04-25 09:50 13.88671 55.23627 37917 ft 539 kts 189°
2026-04-25 09:50 13.81220 55.22693 37918 ft 539 kts 189°
2026-04-25 09:51 13.73780 55.21748 37918 ft 539 kts 189°
2026-04-25 09:51 13.66333 55.20806 37910 ft 539 kts 189°
2026-04-25 09:52 13.60149 55.20027 37916 ft 539 kts 189°
2026-04-25 09:52 13.52702 55.19090 37909 ft 539 kts 189°
2026-04-25 09:53 13.45262 55.18154 37913 ft 539 kts 189°
2026-04-25 09:53 13.37815 55.17219 37919 ft 539 kts 189°
2026-04-25 09:54 13.30375 55.16284 37911 ft 539 kts 189°
2026-04-25 09:54 13.22928 55.15350 37906 ft 539 kts 189°
2026-04-25 09:55 13.15485 55.14416 37912 ft 539 kts 189°
2026-04-25 09:55 13.08035 55.13482 37917 ft 539 kts 189°
2026-04-25 09:56 13.00591 55.12550 37904 ft 539 kts 189°
2026-04-25 09:56 12.93140 55.11617 37910 ft 539 kts 189°
2026-04-25 09:57 12.85690 55.10684 37912 ft 540 kts 189°
2026-04-25 09:57 12.78227 55.09751 37906 ft 540 kts 189°
2026-04-25 09:58 12.70770 55.08819 37902 ft 540 kts 189°
2026-04-25 09:58 12.63357 55.07893 37899 ft 540 kts 189°
2026-04-25 09:59 12.55899 55.06962 37893 ft 540 kts 189°
2026-04-25 09:59 12.48436 55.06031 37893 ft 540 kts 189°
2026-04-25 10:00 12.40977 55.05101 37905 ft 540 kts 189°
2026-04-25 10:00 12.33510 55.04171 37907 ft 540 kts 189°
2026-04-25 10:01 12.26048 55.03241 37895 ft 540 kts 189°
2026-04-25 10:01 12.18579 55.02312 37901 ft 540 kts 189°
2026-04-25 10:02 12.11116 55.01383 37901 ft 540 kts 189°
2026-04-25 10:02 12.03648 55.00455 37893 ft 540 kts 189°
2026-04-25 10:03 11.96139 55.00009 37898 ft 541 kts 182°
2026-04-25 10:03 11.88597 54.99962 37896 ft 542 kts 181°
2026-04-25 10:04 11.81059 54.99980 37882 ft 542 kts 181°
2026-04-25 10:04 11.73515 54.99996 37888 ft 542 kts 181°
2026-04-25 10:05 11.65973 55.00001 37885 ft 542 kts 181°
2026-04-25 10:05 11.58439 55.00001 37894 ft 542 kts 181°
2026-04-25 10:06 11.50900 55.00000 37891 ft 541 kts 181°
2026-04-25 10:06 11.43368 55.00000 37890 ft 541 kts 181°
2026-04-25 10:07 11.35831 55.00003 37883 ft 541 kts 181°
2026-04-25 10:07 11.28300 55.00005 37878 ft 541 kts 181°
2026-04-25 10:08 11.20764 55.00002 37881 ft 541 kts 181°
2026-04-25 10:08 11.13234 55.00000 37889 ft 541 kts 181°
2026-04-25 10:09 11.05749 54.99999 37887 ft 541 kts 181°
2026-04-25 10:09 10.98176 55.00000 37881 ft 541 kts 181°
2026-04-25 10:10 10.90697 55.00000 37889 ft 541 kts 181°
2026-04-25 10:10 10.83175 55.00000 37887 ft 541 kts 181°
2026-04-25 10:11 10.75649 55.00000 37880 ft 540 kts 181°
2026-04-25 10:11 10.68133 55.00000 37882 ft 540 kts 181°
2026-04-25 10:12 10.60611 55.00000 37883 ft 540 kts 181°
2026-04-25 10:13 10.49331 55.00000 37882 ft 540 kts 181°
2026-04-25 10:13 10.41821 55.00000 37882 ft 540 kts 181°
2026-04-25 10:14 10.34308 55.00000 37878 ft 540 kts 181°
2026-04-25 10:14 10.26802 55.00005 37872 ft 540 kts 181°
2026-04-25 10:15 10.19290 55.00003 37867 ft 539 kts 181°
2026-04-25 10:15 10.11793 55.00000 37882 ft 539 kts 181°
2026-04-25 10:16 10.04296 55.00000 37879 ft 539 kts 181°
2026-04-25 10:16 9.96807 55.00000 37876 ft 538 kts 181°
2026-04-25 10:17 9.89362 55.00000 37877 ft 538 kts 180°
2026-04-25 10:17 9.81882 55.00000 37878 ft 537 kts 180°
2026-04-25 10:18 9.74402 55.00000 37871 ft 537 kts 180°
2026-04-25 10:18 9.66929 55.00000 37872 ft 537 kts 180°
2026-04-25 10:19 9.59449 55.00000 37876 ft 537 kts 180°
2026-04-25 10:19 9.51976 55.00000 37870 ft 537 kts 180°
2026-04-25 10:20 9.44496 55.00000 37874 ft 537 kts 180°
2026-04-25 10:20 9.37024 55.00000 37871 ft 537 kts 180°
2026-04-25 10:21 9.29545 55.00000 37858 ft 537 kts 180°
2026-04-25 10:21 9.22082 55.00002 37871 ft 536 kts 180°
2026-04-25 10:22 9.14623 55.00002 37871 ft 536 kts 180°
2026-04-25 10:22 9.07170 55.00001 37862 ft 536 kts 180°
2026-04-25 10:23 8.99709 55.00000 37855 ft 536 kts 180°
2026-04-25 10:23 8.92260 55.00000 37864 ft 535 kts 180°
2026-04-25 10:24 8.84813 55.00000 37865 ft 535 kts 180°
2026-04-25 10:24 8.77372 55.00000 37866 ft 535 kts 180°
2026-04-25 10:25 8.69925 55.00000 37864 ft 535 kts 180°
2026-04-25 10:25 8.62490 55.00000 37864 ft 534 kts 180°
2026-04-25 10:26 8.55060 55.00000 37864 ft 534 kts 180°
2026-04-25 10:26 8.47631 55.00000 37862 ft 534 kts 180°
2026-04-25 10:27 8.40210 55.00000 37862 ft 534 kts 180°
2026-04-25 10:27 8.32789 55.00000 37863 ft 532 kts 180°
2026-04-25 10:28 8.25394 55.00001 37862 ft 531 kts 180°
2026-04-25 10:28 8.18052 55.00001 37862 ft 531 kts 180°
2026-04-25 10:29 8.10655 55.00006 37860 ft 531 kts 180°
2026-04-25 10:29 8.03263 55.00004 37853 ft 530 kts 180°
2026-04-25 10:30 7.95905 55.00001 37856 ft 529 kts 180°
2026-04-25 10:30 7.88547 55.00000 37857 ft 528 kts 180°
2026-04-25 10:31 7.81196 55.00000 37859 ft 528 kts 180°
2026-04-25 10:31 7.73849 55.00000 37852 ft 528 kts 180°
2026-04-25 10:32 7.66512 55.00000 37857 ft 527 kts 180°
2026-04-25 10:32 7.59180 55.00000 37856 ft 527 kts 180°
2026-04-25 10:33 7.51853 55.00001 37851 ft 527 kts 180°
2026-04-25 10:33 7.44522 55.00001 37856 ft 526 kts 180°
2026-04-25 10:34 7.37205 55.00001 37853 ft 526 kts 180°
2026-04-25 10:34 7.29888 55.00001 37859 ft 526 kts 180°
2026-04-25 10:35 7.22578 55.00001 37854 ft 526 kts 180°
2026-04-25 10:35 7.15262 55.00001 37854 ft 525 kts 180°
2026-04-25 10:36 7.07953 55.00001 37852 ft 525 kts 180°
2026-04-25 10:36 7.00640 55.00001 37857 ft 525 kts 180°
2026-04-25 10:37 6.93334 55.00001 37853 ft 525 kts 180°
2026-04-25 10:37 6.86022 55.00001 37852 ft 525 kts 180°
2026-04-25 10:38 6.78710 55.00005 37854 ft 526 kts 180°
2026-04-25 10:38 6.71381 55.00004 37850 ft 527 kts 180°
2026-04-25 10:39 6.65292 55.00002 37851 ft 527 kts 180°
2026-04-25 10:39 6.57962 55.00000 37852 ft 526 kts 180°
2026-04-25 10:40 6.50639 55.00000 37851 ft 526 kts 180°
2026-04-25 10:40 6.43310 55.00000 37852 ft 526 kts 180°
2026-04-25 10:41 6.35987 55.00000 37844 ft 526 kts 180°
2026-04-25 10:41 6.28656 55.00000 37847 ft 527 kts 180°
2026-04-25 10:42 6.21330 55.00000 37856 ft 527 kts 181°
2026-04-25 10:42 6.13991 55.00001 37849 ft 527 kts 181°
2026-04-25 10:43 6.06654 55.00000 37852 ft 527 kts 181°
2026-04-25 10:43 5.99311 55.00000 37850 ft 527 kts 181°
2026-04-25 10:44 5.91974 55.00000 37845 ft 527 kts 181°
2026-04-25 10:44 5.84629 55.00000 37845 ft 528 kts 181°
2026-04-25 10:45 5.77282 55.00000 37845 ft 528 kts 181°
2026-04-25 10:45 5.69941 55.00000 37842 ft 528 kts 181°
2026-04-25 10:46 5.62599 55.00001 37842 ft 528 kts 181°
2026-04-25 10:46 5.55303 55.00001 37841 ft 527 kts 181°
2026-04-25 10:47 5.47965 55.00001 37843 ft 527 kts 181°
2026-04-25 10:47 5.40634 55.00001 37844 ft 527 kts 181°
2026-04-25 10:48 5.33301 55.00250 37840 ft 527 kts 176°
2026-04-25 10:48 5.25992 55.00886 37843 ft 527 kts 175°
2026-04-25 10:49 5.18675 55.01520 37839 ft 528 kts 176°
2026-04-25 10:49 5.11351 55.02089 37841 ft 528 kts 176°
2026-04-25 10:50 5.04017 55.02627 37839 ft 528 kts 176°
2026-04-25 10:50 4.96689 55.03160 37840 ft 528 kts 176°
2026-04-25 10:51 4.89363 55.03695 37840 ft 527 kts 176°
2026-04-25 10:51 4.82048 55.04231 37837 ft 527 kts 176°
2026-04-25 10:52 4.74727 55.04767 37837 ft 527 kts 176°
2026-04-25 10:52 4.67411 55.05303 37836 ft 527 kts 176°
2026-04-25 10:53 4.60102 55.05839 37836 ft 526 kts 176°
2026-04-25 10:53 4.52809 55.06373 37837 ft 526 kts 176°
2026-04-25 10:54 4.45559 55.06904 37838 ft 526 kts 176°
2026-04-25 10:54 4.38266 55.07438 37835 ft 526 kts 176°
2026-04-25 10:55 4.30970 55.07971 37833 ft 525 kts 176°
2026-04-25 10:55 4.23685 55.08505 37836 ft 525 kts 176°
2026-04-25 10:56 4.16396 55.09038 37833 ft 525 kts 176°
2026-04-25 10:56 4.09111 55.09571 37836 ft 525 kts 176°
2026-04-25 10:57 4.01823 55.10109 37833 ft 524 kts 176°
2026-04-25 10:57 3.94550 55.10639 37836 ft 524 kts 176°
2026-04-25 10:58 3.87274 55.11169 37834 ft 524 kts 176°
2026-04-25 10:58 3.80005 55.11700 37835 ft 524 kts 176°
2026-04-25 10:59 3.72730 55.12233 37832 ft 523 kts 176°
2026-04-25 10:59 3.65483 55.12763 37830 ft 522 kts 176°
2026-04-25 11:00 3.58241 55.13292 37835 ft 522 kts 176°
2026-04-25 11:00 3.51004 55.13821 37832 ft 522 kts 176°
2026-04-25 11:01 3.43759 55.14351 37830 ft 522 kts 176°
2026-04-25 11:01 3.36522 55.14880 37827 ft 522 kts 176°
2026-04-25 11:02 3.29278 55.15410 37827 ft 522 kts 176°
2026-04-25 11:02 3.22042 55.15938 37824 ft 522 kts 176°
2026-04-25 11:03 3.14847 55.16464 37827 ft 522 kts 176°
2026-04-25 11:03 3.07609 55.16993 37829 ft 522 kts 176°
2026-04-25 11:04 3.00359 55.17522 37830 ft 522 kts 176°
2026-04-25 11:04 2.93114 55.18052 37828 ft 522 kts 176°
2026-04-25 11:05 2.85863 55.18581 37827 ft 522 kts 176°
2026-04-25 11:05 2.78620 55.19110 37829 ft 522 kts 176°
2026-04-25 11:06 2.71370 55.19639 37828 ft 522 kts 176°
2026-04-25 11:06 2.64124 55.20168 37830 ft 522 kts 176°
2026-04-25 11:07 2.56872 55.20698 37827 ft 522 kts 176°
2026-04-25 11:07 2.49627 55.21226 37828 ft 522 kts 176°
2026-04-25 11:08 2.42374 55.21756 37827 ft 522 kts 176°
2026-04-25 11:08 2.35127 55.22284 37826 ft 522 kts 176°
2026-04-25 11:09 2.27869 55.22814 37828 ft 522 kts 176°
2026-04-25 11:09 2.20619 55.23342 37831 ft 522 kts 176°
2026-04-25 11:10 2.13379 55.23871 37830 ft 521 kts 176°
2026-04-25 11:10 2.06162 55.24397 37830 ft 520 kts 176°
2026-04-25 11:11 1.98948 55.24923 37830 ft 520 kts 176°
2026-04-25 11:11 1.91735 55.25449 37829 ft 520 kts 176°
2026-04-25 11:12 1.84523 55.25975 37825 ft 518 kts 176°
2026-04-25 11:12 1.77370 55.26497 37832 ft 514 kts 176°
2026-04-25 11:13 1.70201 55.27021 37828 ft 520 kts 176°
2026-04-25 11:13 1.62936 55.27549 37830 ft 525 kts 176°
2026-04-25 11:14 1.55697 55.28076 37830 ft 525 kts 176°
2026-04-25 11:14 1.48438 55.28605 37831 ft 523 kts 176°
2026-04-25 11:15 1.41187 55.29134 37828 ft 522 kts 176°
2026-04-25 11:15 1.33943 55.29663 37835 ft 522 kts 176°
2026-04-25 11:16 1.23051 55.30051 37836 ft 521 kts 179°
2026-04-25 11:16 1.15827 55.30159 37841 ft 518 kts 179°
2026-04-25 11:17 1.08629 55.30309 37840 ft 517 kts 179°
2026-04-25 11:17 1.01441 55.30489 37834 ft 517 kts 179°
2026-04-25 11:18 0.94245 55.30677 37836 ft 517 kts 179°
2026-04-25 11:18 0.87056 55.30864 37838 ft 516 kts 179°
2026-04-25 11:19 0.79876 55.31049 37838 ft 516 kts 179°
2026-04-25 11:19 0.72702 55.31234 37844 ft 516 kts 179°
2026-04-25 11:20 0.65523 55.31418 37841 ft 516 kts 179°
2026-04-25 11:20 0.58349 55.31603 37844 ft 516 kts 179°
2026-04-25 11:21 0.51163 55.31788 37841 ft 517 kts 179°
2026-04-25 11:21 0.43971 55.31972 37844 ft 517 kts 179°
2026-04-25 11:22 0.37986 55.32126 37849 ft 517 kts 179°
2026-04-25 11:22 0.29604 55.32342 37844 ft 517 kts 179°
2026-04-25 11:23 0.22409 55.32527 37844 ft 517 kts 179°
2026-04-25 11:23 0.15259 55.32711 37848 ft 517 kts 179°
2026-04-25 11:24 0.08050 55.32897 37844 ft 517 kts 179°
2026-04-25 11:24 0.00857 55.33082 37846 ft 517 kts 179°
2026-04-25 11:25 -0.06319 55.33266 37852 ft 517 kts 179°
2026-04-25 11:25 -0.13517 55.33451 37850 ft 517 kts 179°
2026-04-25 11:26 -0.20720 55.33637 37848 ft 517 kts 179°
2026-04-25 11:26 -0.26722 55.33791 37849 ft 517 kts 179°
2026-04-25 11:27 -0.35085 55.34006 37849 ft 517 kts 179°
2026-04-25 11:27 -0.39896 55.34130 37848 ft 516 kts 179°
2026-04-25 11:28 -0.48238 55.34345 37847 ft 515 kts 179°
2026-04-25 11:28 -0.55424 55.34530 37849 ft 515 kts 179°
2026-04-25 11:29 -0.62586 55.34714 37857 ft 515 kts 179°
2026-04-25 11:29 -0.69757 55.34899 37851 ft 515 kts 179°
2026-04-25 11:30 -0.76912 55.35082 37861 ft 514 kts 179°
2026-04-25 11:30 -0.84068 55.35267 37856 ft 514 kts 179°
2026-04-25 11:31 -0.91227 55.35451 37847 ft 515 kts 179°
2026-04-25 11:31 -0.98381 55.35634 37856 ft 513 kts 179°
2026-04-25 11:32 -1.05516 55.35818 37852 ft 512 kts 179°
2026-04-25 11:32 -1.12645 55.36002 37854 ft 512 kts 179°
2026-04-25 11:33 -1.19768 55.36185 37857 ft 512 kts 179°
2026-04-25 11:33 -1.26894 55.36369 37853 ft 512 kts 179°
2026-04-25 11:34 -1.34033 55.36552 37851 ft 514 kts 179°
2026-04-25 11:34 -1.41134 55.36735 37858 ft 514 kts 179°
2026-04-25 11:35 -1.48336 55.36921 37852 ft 514 kts 179°
2026-04-25 11:35 -1.55484 55.37105 37854 ft 514 kts 179°
2026-04-25 11:36 -1.62583 55.37288 37852 ft 513 kts 179°
2026-04-25 11:36 -1.69714 55.37471 37847 ft 512 kts 179°
2026-04-25 11:37 -1.76842 55.37655 37853 ft 512 kts 179°
2026-04-25 11:37 -1.83972 55.37838 37853 ft 512 kts 179°
2026-04-25 11:38 -1.91100 55.38022 37842 ft 512 kts 179°
2026-04-25 11:38 -1.98205 55.38205 37843 ft 510 kts 179°
2026-04-25 11:39 -2.05303 55.38388 37845 ft 510 kts 179°
2026-04-25 11:39 -2.12394 55.38571 37856 ft 510 kts 179°
2026-04-25 11:40 -2.19487 55.38762 37851 ft 510 kts 178°
2026-04-25 11:40 -2.26589 55.39031 37845 ft 512 kts 178°
2026-04-25 11:41 -2.33707 55.39321 37845 ft 512 kts 178°
2026-04-25 11:41 -2.40830 55.39601 37850 ft 512 kts 178°
2026-04-25 11:42 -2.47956 55.39874 37847 ft 512 kts 178°
2026-04-25 11:42 -2.55030 55.40143 37845 ft 512 kts 178°
2026-04-25 11:43 -2.62197 55.40416 37603 ft 510 kts 178°
2026-04-25 11:43 -2.65689 55.40549 37345 ft 509 kts 178°
2026-04-25 11:43 -2.69231 55.40684 37092 ft 509 kts 178°
2026-04-25 11:44 -2.72772 55.40818 36838 ft 509 kts 178°
2026-04-25 11:44 -2.76335 55.40954 36589 ft 510 kts 178°
2026-04-25 11:44 -2.79856 55.41088 36342 ft 510 kts 178°
2026-04-25 11:44 -2.83414 55.41224 36097 ft 510 kts 178°
2026-04-25 11:45 -2.86971 55.41359 35856 ft 511 kts 178°
2026-04-25 11:45 -2.90497 55.41494 35615 ft 511 kts 178°
2026-04-25 11:45 -2.94047 55.41629 35385 ft 509 kts 178°
2026-04-25 11:45 -2.97596 55.41764 35141 ft 507 kts 178°
2026-04-25 11:46 -3.01131 55.41899 34904 ft 505 kts 178°
2026-04-25 11:46 -3.04606 55.42032 34685 ft 503 kts 178°
2026-04-25 11:46 -3.08116 55.42166 34458 ft 501 kts 178°
2026-04-25 11:46 -3.11599 55.42298 34231 ft 500 kts 178°
2026-04-25 11:47 -3.15069 55.42431 34011 ft 497 kts 178°
2026-04-25 11:47 -3.18499 55.42562 33645 ft 490 kts 178°
2026-04-25 11:47 -3.21857 55.42690 33158 ft 486 kts 178°
2026-04-25 11:47 -3.25217 55.42819 32680 ft 482 kts 178°
2026-04-25 11:48 -3.28554 55.42946 32179 ft 478 kts 178°
2026-04-25 11:48 -3.31864 55.43073 31700 ft 474 kts 179°
2026-04-25 11:48 -3.35142 55.43198 31209 ft 470 kts 179°
2026-04-25 11:48 -3.38402 55.43322 30748 ft 467 kts 179°
2026-04-25 11:49 -3.41639 55.43446 30276 ft 464 kts 179°
2026-04-25 11:49 -3.44851 55.43568 29784 ft 460 kts 179°
2026-04-25 11:49 -3.48043 55.43690 29287 ft 456 kts 179°
2026-04-25 11:49 -3.51205 55.43810 28819 ft 452 kts 179°
2026-04-25 11:50 -3.54328 55.43929 28363 ft 447 kts 179°
2026-04-25 11:50 -3.57428 55.44047 27911 ft 443 kts 179°
2026-04-25 11:50 -3.60495 55.44164 27454 ft 439 kts 178°
2026-04-25 11:50 -3.63531 55.44280 27003 ft 435 kts 179°
2026-04-25 11:51 -3.66542 55.44395 26558 ft 431 kts 178°
2026-04-25 11:51 -3.69486 55.44507 26099 ft 428 kts 178°
2026-04-25 11:51 -3.72449 55.44620 25669 ft 424 kts 178°
2026-04-25 11:51 -3.75425 55.44733 25216 ft 421 kts 178°
2026-04-25 11:52 -3.78313 55.44843 24773 ft 419 kts 178°
2026-04-25 11:52 -3.81211 55.44953 24325 ft 416 kts 178°
2026-04-25 11:52 -3.84103 55.45064 23869 ft 415 kts 178°
2026-04-25 11:52 -3.86979 55.45173 23420 ft 413 kts 177°
2026-04-25 11:53 -3.89839 55.45282 22896 ft 410 kts 177°
2026-04-25 11:53 -3.92674 55.45390 22445 ft 406 kts 177°
2026-04-25 11:53 -3.95481 55.45498 21996 ft 402 kts 177°
2026-04-25 11:53 -3.98265 55.45604 21543 ft 399 kts 177°
2026-04-25 11:54 -4.01030 55.45710 21096 ft 396 kts 177°
2026-04-25 11:54 -4.03776 55.45815 20645 ft 393 kts 177°
2026-04-25 11:54 -4.09202 55.46023 19746 ft 388 kts 177°
2026-04-25 11:55 -4.11898 55.46128 19297 ft 386 kts 177°
2026-04-25 11:55 -4.14543 55.46521 18813 ft 383 kts 163°
2026-04-25 11:55 -4.16978 55.47587 18247 ft 381 kts 146°
2026-04-25 11:55 -4.18904 55.49381 17725 ft 377 kts 126°
2026-04-25 11:56 -4.20246 55.51588 17235 ft 372 kts 117°
2026-04-25 11:56 -4.21436 55.53882 16811 ft 368 kts 116°
2026-04-25 11:56 -4.22595 55.56157 16378 ft 364 kts 116°
2026-04-25 11:56 -4.23730 55.58386 15956 ft 361 kts 116°
2026-04-25 11:57 -4.24873 55.60622 15523 ft 358 kts 116°
2026-04-25 11:57 -4.26010 55.62843 15105 ft 356 kts 116°
2026-04-25 11:57 -4.27143 55.65055 14692 ft 354 kts 116°
2026-04-25 11:57 -4.28266 55.67244 14278 ft 352 kts 116°
2026-04-25 11:58 -4.29370 55.69398 13870 ft 350 kts 116°
2026-04-25 11:58 -4.30485 55.71573 13436 ft 348 kts 116°
2026-04-25 11:58 -4.31588 55.73723 13008 ft 345 kts 117°
2026-04-25 11:58 -4.32682 55.75856 12609 ft 342 kts 116°
2026-04-25 11:59 -4.33769 55.77976 12200 ft 338 kts 117°
2026-04-25 11:59 -4.34829 55.80042 11810 ft 335 kts 116°
2026-04-25 11:59 -4.35890 55.82111 11420 ft 332 kts 116°
2026-04-25 12:00 -4.37986 55.86198 10683 ft 325 kts 116°
2026-04-25 12:00 -4.39000 55.88175 10554 ft 312 kts 116°
2026-04-25 12:00 -4.40908 55.91873 10325 ft 289 kts 118°
2026-04-25 12:01 -4.42119 55.93453 10088 ft 284 kts 138°
2026-04-25 12:01 -4.43798 55.94406 9796 ft 284 kts 163°
2026-04-25 12:01 -4.45804 55.94560 9474 ft 296 kts 189°
2026-04-25 12:01 -4.47718 55.93801 9152 ft 296 kts 216°
2026-04-25 12:02 -4.49960 55.90453 8508 ft 292 kts 244°
2026-04-25 12:02 -4.51128 55.88827 8226 ft 291 kts 226°
2026-04-25 12:02 -4.52595 55.87445 7986 ft 285 kts 221°
2026-04-25 12:03 -4.54053 55.86166 7825 ft 273 kts 221°
2026-04-25 12:03 -4.55461 55.84938 7674 ft 263 kts 221°
2026-04-25 12:03 -4.56826 55.83747 7414 ft 258 kts 221°
2026-04-25 12:03 -4.58169 55.82573 7102 ft 255 kts 221°
2026-04-25 12:04 -4.59488 55.81419 6783 ft 253 kts 221°
2026-04-25 12:04 -4.60813 55.80259 6459 ft 252 kts 221°
2026-04-25 12:04 -4.62131 55.79104 6124 ft 251 kts 221°
2026-04-25 12:04 -4.63439 55.77958 5798 ft 249 kts 221°
2026-04-25 12:05 -4.64738 55.76820 5478 ft 247 kts 221°
2026-04-25 12:05 -4.66021 55.75696 5204 ft 243 kts 221°
2026-04-25 12:05 -4.67285 55.74589 4958 ft 240 kts 221°
2026-04-25 12:05 -4.68537 55.73492 4699 ft 239 kts 221°
2026-04-25 12:06 -4.69830 55.72451 4458 ft 237 kts 216°
2026-04-25 12:06 -4.71149 55.71526 4347 ft 226 kts 214°
2026-04-25 12:06 -4.72402 55.70669 4237 ft 214 kts 214°
2026-04-25 12:06 -4.73601 55.69851 4095 ft 203 kts 214°
2026-04-25 12:07 -4.74768 55.69054 3823 ft 200 kts 214°
2026-04-25 12:07 -4.75876 55.68251 3585 ft 193 kts 220°
2026-04-25 12:07 -4.76652 55.67197 3194 ft 187 kts 248°
2026-04-25 12:07 -4.76778 55.65935 2998 ft 187 kts 278°
2026-04-25 12:08 -4.76286 55.64738 2737 ft 186 kts 301°
2026-04-25 12:08 -4.75545 55.63665 2496 ft 186 kts 305°
2026-04-25 12:08 -4.74784 55.62615 2271 ft 186 kts 304°
2026-04-25 12:08 -4.74031 55.61571 2038 ft 184 kts 304°
2026-04-25 12:09 -4.73281 55.60524 1796 ft 184 kts 304°
2026-04-25 12:09 -4.72542 55.59480 1541 ft 183 kts 304°
2026-04-25 12:09 -4.71812 55.58439 1305 ft 180 kts 304°
2026-04-25 12:09 -4.71119 55.57454 1124 ft 167 kts 304°
2026-04-25 12:10 -4.70480 55.56546 996 ft 152 kts 304°
2026-04-25 12:10 -4.69886 55.55694 748 ft 147 kts 305°
2026-04-25 12:10 -4.69303 55.54861 491 ft 145 kts 306°
2026-04-25 12:10 -4.68735 55.54047 292 ft 140 kts 305°
2026-04-25 12:11 -4.68184 55.53256 98 ft 137 kts 304°
2026-04-25 12:11 -4.67670 55.52516 27 ft 115 kts 305°
2026-04-25 12:11 -4.67277 55.51948 29 ft 85 kts 304°
2026-04-25 12:11 -4.67004 55.51550 28 ft 49 kts 304°
2026-04-25 12:12 -4.66909 55.51387 28 ft 7 kts 267°
2026-04-25 12:12 -4.66924 55.51358 27 ft 8 kts 234°
2026-04-25 12:12 -4.66953 55.51330 27 ft 0 kts 213°
2026-04-25 12:13 -4.66958 55.51326 27 ft 4 kts 213°
2026-04-25 12:13 -4.66983 55.51309 27 ft 9 kts 216°
2026-04-25 12:13 -4.67042 55.51254 27 ft 7 kts 219°
2026-04-25 12:13 -4.67063 55.51239 27 ft 5 kts 216°
2026-04-25 12:14 -4.67076 55.51229 27 ft 0 kts 216°